Time,TemperatureF,DewpointF,PressureIn,WindDirection,WindDirectionDegrees,WindSpeedMPH,WindSpeedGustMPH,Humidity,HourlyPrecipIn,Conditions,Clouds,dailyrainin,SoftwareType,DateUTC
2013-04-17 00:03:00,59.0,59.0,30.13,NE,45,1.0,3.0,100,0.00,,,0.19,,2013-04-17 04:03:00,
2013-04-17 00:13:00,59.0,59.0,30.13,NE,45,1.0,3.0,100,0.00,,,0.19,,2013-04-17 04:13:00,
2013-04-17 00:22:00,59.0,59.0,30.13,East,90,1.0,2.0,100,0.00,,,0.19,,2013-04-17 04:22:00,
2013-04-17 00:33:00,59.0,59.0,30.13,North,360,3.0,5.0,100,0.00,,,0.19,,2013-04-17 04:33:00,
2013-04-17 00:42:00,59.0,59.0,30.13,North,360,3.0,5.0,100,0.00,,,0.19,,2013-04-17 04:42:00,
2013-04-17 00:52:00,59.0,59.0,30.13,East,90,2.0,3.0,100,0.00,,,0.19,,2013-04-17 04:52:00,
2013-04-17 01:02:00,59.0,59.0,30.13,NE,45,3.0,6.0,100,0.00,,,0.19,,2013-04-17 05:02:00,
2013-04-17 01:12:00,59.0,59.0,30.13,NE,45,3.0,6.0,100,0.00,,,0.19,,2013-04-17 05:12:00,
2013-04-17 01:22:00,59.0,59.0,30.13,NE,45,3.0,6.0,100,0.00,,,0.19,,2013-04-17 05:22:00,
2013-04-17 01:32:00,58.0,58.0,30.12,SE,135,4.0,7.0,100,0.00,,,0.19,,2013-04-17 05:32:00,
2013-04-17 01:42:00,58.0,58.0,30.12,SE,135,4.0,7.0,100,0.00,,,0.19,,2013-04-17 05:42:00,
2013-04-17 01:52:00,58.0,58.0,30.10,ESE,112,5.0,7.0,100,0.00,,,0.19,,2013-04-17 05:52:00,
2013-04-17 02:02:00,58.0,58.0,30.13,North,360,6.0,9.0,100,0.00,,,0.19,,2013-04-17 06:02:00,
2013-04-17 02:12:00,58.0,58.0,30.13,North,360,6.0,9.0,100,0.00,,,0.19,,2013-04-17 06:12:00,
2013-04-17 02:22:00,58.0,58.0,30.14,NNE,22,7.0,9.0,100,0.00,,,0.19,,2013-04-17 06:22:00,
2013-04-17 02:32:00,57.0,57.0,30.11,NNE,22,8.0,12.0,100,0.00,,,0.19,,2013-04-17 06:32:00,
2013-04-17 02:42:00,57.0,57.0,30.11,NNE,22,8.0,12.0,100,0.00,,,0.19,,2013-04-17 06:42:00,
2013-04-17 02:52:00,56.0,56.0,30.09,East,90,3.0,6.0,100,0.00,,,0.19,,2013-04-17 06:52:00,
2013-04-17 03:02:00,56.0,56.0,30.11,North,360,9.0,12.0,100,0.00,,,0.20,,2013-04-17 07:02:00,
2013-04-17 03:12:00,56.0,56.0,30.11,North,360,9.0,12.0,100,0.00,,,0.20,,2013-04-17 07:12:00,
2013-04-17 03:22:00,55.0,55.0,30.13,North,360,8.0,12.0,100,0.00,,,0.31,,2013-04-17 07:22:00,
2013-04-17 03:32:00,55.0,55.0,30.10,East,90,5.0,7.0,100,0.00,,,0.62,,2013-04-17 07:32:00,
2013-04-17 03:42:00,55.0,55.0,30.10,East,90,5.0,7.0,100,0.00,,,0.62,,2013-04-17 07:42:00,
2013-04-17 03:52:00,55.0,55.0,30.12,North,360,5.0,6.0,100,0.00,,,0.62,,2013-04-17 07:52:00,
2013-04-17 04:02:00,55.0,55.0,30.11,NNE,22,6.0,13.0,100,0.00,,,0.63,,2013-04-17 08:02:00,
2013-04-17 04:12:00,55.0,55.0,30.11,NNE,22,6.0,13.0,100,0.00,,,0.63,,2013-04-17 08:12:00,
2013-04-17 04:22:00,55.0,55.0,30.13,NE,45,6.0,9.0,100,0.00,,,0.63,,2013-04-17 08:22:00,
2013-04-17 04:32:00,55.0,55.0,30.11,NE,45,5.0,7.0,100,0.00,,,0.90,,2013-04-17 08:32:00,
2013-04-17 04:42:00,55.0,55.0,30.11,NE,45,5.0,7.0,100,0.00,,,0.90,,2013-04-17 08:42:00,
2013-04-17 04:52:00,55.0,55.0,30.11,NE,45,5.0,7.0,100,0.00,,,0.90,,2013-04-17 08:52:00,
2013-04-17 05:02:00,55.0,55.0,30.14,North,360,6.0,8.0,100,0.00,,,0.96,,2013-04-17 09:02:00,
2013-04-17 05:12:00,55.0,55.0,30.14,North,360,6.0,8.0,100,0.00,,,0.96,,2013-04-17 09:12:00,
2013-04-17 05:22:00,55.0,55.0,30.14,North,360,6.0,8.0,100,0.00,,,0.96,,2013-04-17 09:22:00,
2013-04-17 05:33:00,55.0,55.0,30.14,North,360,6.0,8.0,100,0.00,,,0.96,,2013-04-17 09:33:00,
2013-04-17 05:42:00,55.0,55.0,30.14,North,360,6.0,8.0,100,0.00,,,0.96,,2013-04-17 09:42:00,
2013-04-17 05:52:00,55.0,55.0,30.13,ENE,67,3.0,5.0,100,0.00,,,0.96,,2013-04-17 09:52:00,
2013-04-17 06:02:00,55.0,55.0,30.12,NE,45,4.0,7.0,100,0.00,,,0.96,,2013-04-17 10:02:00,
2013-04-17 06:12:00,55.0,55.0,30.12,NE,45,4.0,7.0,100,0.00,,,0.96,,2013-04-17 10:12:00,
2013-04-17 06:23:00,56.0,56.0,30.11,East,90,0.0,1.0,100,0.00,,,0.96,,2013-04-17 10:23:00,
2013-04-17 06:32:00,56.0,56.0,30.11,East,90,0.0,1.0,100,0.00,,,0.96,,2013-04-17 10:32:00,
2013-04-17 06:42:00,56.0,56.0,30.11,East,90,0.0,1.0,100,0.00,,,0.96,,2013-04-17 10:42:00,
2013-04-17 06:52:00,56.0,56.0,30.10,East,90,4.0,6.0,100,0.00,,,0.96,,2013-04-17 10:52:00,
2013-04-17 07:02:00,56.0,56.0,30.12,North,360,6.0,8.0,100,0.00,,,0.96,,2013-04-17 11:02:00,
2013-04-17 07:12:00,56.0,56.0,30.12,North,360,6.0,8.0,100,0.00,,,0.96,,2013-04-17 11:12:00,
2013-04-17 07:22:00,56.0,56.0,30.13,NNE,22,5.0,6.0,100,0.00,,,0.96,,2013-04-17 11:22:00,
2013-04-17 07:32:00,57.0,57.0,30.13,NE,45,4.0,7.0,100,0.00,,,0.96,,2013-04-17 11:32:00,
2013-04-17 07:42:00,57.0,57.0,30.13,NE,45,4.0,7.0,100,0.00,,,0.96,,2013-04-17 11:42:00,
2013-04-17 07:52:00,57.0,57.0,30.13,ESE,112,2.0,6.0,100,0.00,,,0.96,,2013-04-17 11:52:00,
2013-04-17 08:02:00,57.0,57.0,30.13,SE,135,4.0,7.0,100,0.00,,,0.96,,2013-04-17 12:02:00,
2013-04-17 08:12:00,57.0,57.0,30.13,SE,135,4.0,7.0,100,0.00,,,0.96,,2013-04-17 12:12:00,
2013-04-17 08:22:00,57.0,57.0,30.13,ESE,112,3.0,5.0,100,0.00,,,0.96,,2013-04-17 12:22:00,
2013-04-17 08:32:00,57.0,57.0,30.13,East,90,1.0,3.0,100,0.00,,,0.96,,2013-04-17 12:32:00,
2013-04-17 08:42:00,57.0,57.0,30.13,East,90,1.0,3.0,100,0.00,,,0.96,,2013-04-17 12:42:00,
2013-04-17 08:52:00,58.0,58.0,30.12,SE,135,4.0,8.0,100,0.00,,,0.96,,2013-04-17 12:52:00,
2013-04-17 09:02:00,58.0,58.0,30.13,ENE,67,3.0,6.0,100,0.00,,,0.95,,2013-04-17 13:02:00,
2013-04-17 09:12:00,58.0,58.0,30.13,ENE,67,3.0,6.0,100,0.00,,,0.95,,2013-04-17 13:12:00,
2013-04-17 09:22:00,58.0,58.0,30.13,SE,135,3.0,7.0,100,0.00,,,0.95,,2013-04-17 13:22:00,
2013-04-17 09:32:00,58.0,58.0,30.13,NE,45,3.0,7.0,100,0.00,,,0.95,,2013-04-17 13:32:00,
2013-04-17 09:42:00,58.0,58.0,30.13,NE,45,3.0,7.0,100,0.00,,,0.95,,2013-04-17 13:42:00,
2013-04-17 09:52:00,59.0,59.0,30.13,NE,45,2.0,4.0,100,0.00,,,0.95,,2013-04-17 13:52:00,
2013-04-17 10:02:00,60.0,60.0,30.14,NNE,22,4.0,5.0,100,0.00,,,0.95,,2013-04-17 14:02:00,
2013-04-17 10:12:00,60.0,60.0,30.14,NNE,22,4.0,5.0,100,0.00,,,0.95,,2013-04-17 14:12:00,
2013-04-17 10:22:00,60.0,60.0,30.14,SE,135,2.0,5.0,100,0.00,,,0.95,,2013-04-17 14:22:00,
2013-04-17 10:32:00,60.0,60.0,30.14,ESE,112,3.0,7.0,100,0.00,,,0.95,,2013-04-17 14:32:00,
2013-04-17 10:42:00,60.0,60.0,30.14,East,90,3.0,6.0,100,0.00,,,0.95,,2013-04-17 14:42:00,
2013-04-17 10:52:00,60.0,60.0,30.14,East,90,3.0,6.0,100,0.00,,,0.95,,2013-04-17 14:52:00,
2013-04-17 11:02:00,61.0,61.0,30.15,East,90,4.0,6.0,100,0.00,,,0.95,,2013-04-17 15:02:00,
2013-04-17 11:12:00,61.0,61.0,30.15,East,90,4.0,6.0,100,0.00,,,0.95,,2013-04-17 15:12:00,
2013-04-17 11:22:00,61.0,61.0,30.15,East,90,4.0,6.0,100,0.00,,,0.95,,2013-04-17 15:22:00,
2013-04-17 11:33:00,62.0,62.0,30.15,ENE,67,2.0,5.0,100,0.00,,,0.95,,2013-04-17 15:33:00,
2013-04-17 11:42:00,62.0,62.0,30.15,ENE,67,2.0,5.0,100,0.00,,,0.95,,2013-04-17 15:42:00,
2013-04-17 11:53:00,63.0,63.0,30.15,NE,45,1.0,5.0,100,0.00,,,0.95,,2013-04-17 15:53:00,
2013-04-17 12:03:00,63.0,63.0,30.14,SE,135,6.0,12.0,100,0.00,,,0.95,,2013-04-17 16:03:00,
2013-04-17 12:12:00,63.0,63.0,30.14,NE,45,4.0,6.0,100,0.00,,,0.95,,2013-04-17 16:12:00,
2013-04-17 12:22:00,63.0,63.0,30.14,NE,45,4.0,6.0,100,0.00,,,0.95,,2013-04-17 16:22:00,
2013-04-17 12:32:00,64.0,64.0,30.13,ESE,112,7.0,11.0,100,0.00,,,0.95,,2013-04-17 16:32:00,
2013-04-17 12:42:00,64.0,64.0,30.13,ESE,112,7.0,11.0,100,0.00,,,0.95,,2013-04-17 16:42:00,
2013-04-17 12:52:00,65.0,65.0,30.13,ESE,112,3.0,5.0,100,0.00,,,0.95,,2013-04-17 16:52:00,
2013-04-17 13:02:00,65.0,65.0,30.13,SE,135,2.0,4.0,100,0.00,,,0.95,,2013-04-17 17:02:00,
2013-04-17 13:12:00,65.0,65.0,30.13,SE,135,2.0,4.0,100,0.00,,,0.95,,2013-04-17 17:12:00,
2013-04-17 13:22:00,66.0,66.0,30.12,ESE,112,2.0,6.0,100,0.00,,,0.95,,2013-04-17 17:22:00,
2013-04-17 13:33:00,68.0,68.0,30.12,SSE,157,4.0,9.0,100,0.00,,,0.95,,2013-04-17 17:33:00,
2013-04-17 13:42:00,68.0,68.0,30.12,SSE,157,4.0,9.0,100,0.00,,,0.95,,2013-04-17 17:42:00,
2013-04-17 13:52:00,70.0,70.0,30.11,SE,135,4.0,7.0,99,0.00,,,0.95,,2013-04-17 17:52:00,
2013-04-17 14:02:00,71.0,69.0,30.12,SE,135,5.0,7.0,94,0.00,,,0.95,,2013-04-17 18:02:00,
2013-04-17 14:12:00,71.0,69.0,30.12,SE,135,5.0,7.0,94,0.00,,,0.95,,2013-04-17 18:12:00,
2013-04-17 14:22:00,71.0,69.0,30.12,SE,135,5.0,7.0,94,0.00,,,0.95,,2013-04-17 18:22:00,
2013-04-17 14:32:00,74.0,71.0,30.10,East,90,5.0,8.0,89,0.00,,,0.95,,2013-04-17 18:32:00,
2013-04-17 14:42:00,74.0,71.0,30.10,East,90,5.0,8.0,89,0.00,,,0.95,,2013-04-17 18:42:00,
2013-04-17 14:52:00,76.0,73.0,30.10,South,180,3.0,5.0,90,0.00,,,0.95,,2013-04-17 18:52:00,
2013-04-17 15:02:00,78.0,72.0,30.09,SSE,157,6.0,9.0,82,0.00,,,0.95,,2013-04-17 19:02:00,
2013-04-17 15:12:00,78.0,72.0,30.09,SSE,157,6.0,9.0,82,0.00,,,0.95,,2013-04-17 19:12:00,
2013-04-17 15:22:00,79.0,73.0,30.08,East,90,3.0,4.0,83,0.00,,,0.95,,2013-04-17 19:22:00,
2013-04-17 15:32:00,80.0,72.0,30.08,South,180,5.0,8.0,78,0.00,,,0.95,,2013-04-17 19:32:00,
2013-04-17 15:42:00,79.0,70.0,30.08,SE,135,6.0,9.0,74,0.00,,,0.95,,2013-04-17 19:42:00,
2013-04-17 15:52:00,79.0,70.0,30.08,SE,135,6.0,9.0,74,0.00,,,0.95,,2013-04-17 19:52:00,
2013-04-17 16:02:00,79.0,70.0,30.08,SE,135,6.0,9.0,74,0.00,,,0.95,,2013-04-17 20:02:00,
2013-04-17 16:12:00,79.0,70.0,30.08,SE,135,6.0,9.0,74,0.00,,,0.95,,2013-04-17 20:12:00,
2013-04-17 16:22:00,81.0,72.0,30.06,SSE,157,4.0,6.0,73,0.00,,,0.95,,2013-04-17 20:22:00,
2013-04-17 16:32:00,81.0,72.0,30.06,SSE,157,4.0,6.0,73,0.00,,,0.95,,2013-04-17 20:32:00,
2013-04-17 16:42:00,81.0,72.0,30.06,SSE,157,4.0,6.0,73,0.00,,,0.95,,2013-04-17 20:42:00,
2013-04-17 16:52:00,81.0,72.0,30.03,SSE,157,3.0,5.0,74,0.00,,,0.95,,2013-04-17 20:52:00,
2013-04-17 17:02:00,80.0,71.0,30.05,SSE,157,10.0,14.0,73,0.00,,,0.96,,2013-04-17 21:02:00,
2013-04-17 17:12:00,80.0,71.0,30.05,SSE,157,10.0,14.0,73,0.00,,,0.96,,2013-04-17 21:12:00,
2013-04-17 17:22:00,76.0,68.0,30.06,SSW,202,9.0,18.0,76,0.00,,,0.96,,2013-04-17 21:22:00,
2013-04-17 17:32:00,70.0,69.0,30.03,SE,135,8.0,13.0,96,0.00,,,0.97,,2013-04-17 21:32:00,
2013-04-17 17:42:00,69.0,69.0,30.01,SE,135,9.0,15.0,100,0.00,,,1.02,,2013-04-17 21:42:00,
2013-04-17 17:53:00,69.0,69.0,30.01,SE,135,9.0,15.0,100,0.00,,,1.02,,2013-04-17 21:53:00,
2013-04-17 18:02:00,69.0,69.0,30.01,SE,135,9.0,15.0,100,0.00,,,1.02,,2013-04-17 22:02:00,
2013-04-17 18:12:00,70.0,70.0,30.02,SE,135,5.0,7.0,100,0.00,,,1.03,,2013-04-17 22:12:00,
2013-04-17 18:22:00,70.0,70.0,30.02,SE,135,5.0,7.0,100,0.00,,,1.03,,2013-04-17 22:22:00,
2013-04-17 18:33:00,69.0,69.0,30.02,SSE,157,8.0,12.0,100,0.00,,,1.03,,2013-04-17 22:33:00,
2013-04-17 18:43:00,68.0,68.0,30.00,ESE,112,6.0,10.0,100,0.00,,,1.04,,2013-04-17 22:43:00,
2013-04-17 18:53:00,68.0,68.0,30.00,ESE,112,6.0,10.0,100,0.00,,,1.04,,2013-04-17 22:53:00,
2013-04-17 19:02:00,68.0,68.0,30.01,SSE,157,5.0,9.0,100,0.00,,,1.04,,2013-04-17 23:02:00,
2013-04-17 19:12:00,68.0,68.0,30.01,SSE,157,5.0,9.0,100,0.00,,,1.04,,2013-04-17 23:12:00,
2013-04-17 19:22:00,68.0,68.0,30.01,SSE,157,5.0,9.0,100,0.00,,,1.04,,2013-04-17 23:22:00,
2013-04-17 19:32:00,68.0,68.0,29.98,SE,135,6.0,9.0,100,0.00,,,0.91,,2013-04-17 23:32:00,
2013-04-17 19:42:00,68.0,68.0,29.98,ESE,112,5.0,9.0,100,0.00,,,0.91,,2013-04-17 23:42:00,
2013-04-17 19:52:00,68.0,68.0,29.98,ESE,112,5.0,9.0,100,0.00,,,0.91,,2013-04-17 23:52:00,
2013-04-17 20:02:00,69.0,69.0,29.97,South,180,3.0,6.0,100,0.00,,,0.91,,2013-04-18 00:02:00,
2013-04-17 20:12:00,69.0,69.0,29.96,SSE,157,5.0,7.0,100,0.00,,,0.91,,2013-04-18 00:12:00,
2013-04-17 20:22:00,69.0,69.0,29.96,SSE,157,5.0,7.0,100,0.00,,,0.91,,2013-04-18 00:22:00,
2013-04-17 20:32:00,68.0,68.0,29.95,SSE,157,1.0,3.0,100,0.00,,,0.91,,2013-04-18 00:32:00,
2013-04-17 20:42:00,67.0,67.0,29.95,SSE,157,1.0,3.0,100,0.00,,,0.89,,2013-04-18 00:42:00,
2013-04-17 20:52:00,67.0,67.0,29.95,SSE,157,1.0,3.0,100,0.00,,,0.89,,2013-04-18 00:52:00,
2013-04-17 21:02:00,67.0,67.0,29.94,ESE,112,4.0,6.0,100,0.00,,,0.88,,2013-04-18 01:02:00,
2013-04-17 21:12:00,67.0,67.0,29.94,SE,135,1.0,2.0,100,0.00,,,0.87,,2013-04-18 01:12:00,
2013-04-17 21:22:00,67.0,67.0,29.94,SE,135,1.0,2.0,100,0.00,,,0.87,,2013-04-18 01:22:00,
2013-04-17 21:32:00,66.0,66.0,29.94,SSE,157,2.0,5.0,100,0.00,,,0.86,,2013-04-18 01:32:00,
2013-04-17 21:42:00,66.0,66.0,29.94,SE,135,3.0,6.0,100,0.00,,,0.86,,2013-04-18 01:42:00,
2013-04-17 21:52:00,66.0,66.0,29.94,SE,135,3.0,6.0,100,0.00,,,0.86,,2013-04-18 01:52:00,
2013-04-17 22:02:00,66.0,66.0,29.94,South,180,3.0,6.0,100,0.00,,,0.86,,2013-04-18 02:02:00,
2013-04-17 22:12:00,66.0,66.0,29.93,SSE,157,3.0,6.0,100,0.00,,,0.86,,2013-04-18 02:12:00,
2013-04-17 22:22:00,66.0,66.0,29.93,SSE,157,3.0,6.0,100,0.00,,,0.86,,2013-04-18 02:22:00,
2013-04-17 22:32:00,66.0,66.0,29.94,SSE,157,3.0,6.0,100,0.00,,,0.86,,2013-04-18 02:32:00,
2013-04-17 22:42:00,66.0,66.0,29.94,SSE,157,3.0,6.0,100,0.00,,,0.86,,2013-04-18 02:42:00,
2013-04-17 22:52:00,66.0,66.0,29.94,SSE,157,3.0,6.0,100,0.00,,,0.86,,2013-04-18 02:52:00,
2013-04-17 23:02:00,66.0,66.0,29.94,SE,135,1.0,4.0,100,0.00,,,0.86,,2013-04-18 03:02:00,
2013-04-17 23:12:00,66.0,66.0,29.93,SE,135,3.0,5.0,100,0.00,,,0.86,,2013-04-18 03:12:00,
2013-04-17 23:22:00,66.0,66.0,29.93,SE,135,3.0,5.0,100,0.00,,,0.86,,2013-04-18 03:22:00,
2013-04-17 23:33:00,66.0,66.0,29.92,South,180,3.0,6.0,100,0.00,,,0.86,,2013-04-18 03:33:00,
2013-04-17 23:43:00,66.0,66.0,29.92,SE,135,4.0,6.0,100,0.00,,,0.86,,2013-04-18 03:43:00,
2013-04-17 23:53:00,66.0,66.0,29.92,SE,135,4.0,6.0,100,0.00,,,0.86,,2013-04-18 03:53:00,